Weather History for Huntsville, AL

Change the Weather History Date:

Monday, February 24, 2014

  Actual Average Record
Temperature  
Mean Temperature 45 °F 48 °F  
Max Temperature 55 °F 59 °F 77 °F (2000)
Min Temperature 34 °F 38 °F 14 °F (1967)
Degree Days  
Heating Degree Days 20 17  
Month to date heating degree days 506 477  
Since 1 July heating degree days 2730 2387  
Cooling Degree Days 0 0  
Month to date cooling degree days 1 0  
Year to date cooling degree days 1 0  
Moisture  
Dew Point 26 °F    
Average Humidity 55    
Maximum Humidity 82    
Minimum Humidity 28    
Precipitation  
Precipitation 0.00 in 0.18 in 1.70 in (1979)
Month to date precipitation 6.43 4.13  
Year to date precipitation 9.73 9.02  
Snow  
Snow 0.00 in - - ()
Month to date snowfall 5.2  
Since 1 July snowfall 5.2  
Snow Depth 0.00 in    
Sea Level Pressure  
Sea Level Pressure 30.17 in    
Wind  
Wind Speed 9 mph (NNE)    
Max Wind Speed 21 mph    
Max Gust Speed 25 mph    
Visibility 10 miles    
Events      
T = Trace of Precipitation, MM = Missing Value Source: NWS Daily Summary

Daily Weather History Graph

Daily Weather History Graph

Search for Another Location

Airport:

Trip Planner

Search our weather history database for the weather conditions in past years. The results will help you decide how hot, cold, wet, or windy it might be!

Date:

Astronomy

Feb. 24, 2014 Rise Set
Actual Time 6:22 AM CST 5:38 PM CST
Civil Twilight 5:57 AM CST 6:04 PM CST
Nautical Twilight 5:27 AM CST 6:33 PM CST
Astronomical Twilight 4:58 AM CST 7:02 PM CST
Moon 2:13 AM CST (2/24) 12:46 PM CST (2/24)
Length of Visible Light 12h 07m
Length of Day
11h 16m
Waning Crescent, 28% of the Moon is Illuminated
Feb 24
Waning Crescent
Mar 1
New
Mar 8
First Quarter
Mar 16
Full
Mar 23
Last Quarter

Hourly Weather History & Observations

Time (CST) Temp. Windchill Dew Point Humidity Pressure Visibility Wind Dir Wind Speed Gust Speed Precip Events Conditions
12:53 AM 45.0 °F 40.1 °F 35.1 °F 68% 30.11 in 10.0 mi North 9.2 mph - N/A   Clear
1:53 AM 44.1 °F 36.2 °F 37.0 °F 76% 30.12 in 10.0 mi North 18.4 mph 23.0 mph N/A   Overcast
2:08 AM 42.8 °F 34.8 °F 35.6 °F 76% 30.13 in 10.0 mi North 17.3 mph - N/A   Overcast
2:53 AM 42.1 °F 33.9 °F 34.0 °F 73% 30.14 in 10.0 mi North 17.3 mph - N/A   Overcast
3:18 AM 41.0 °F 33.9 °F 33.8 °F 76% 30.15 in 10.0 mi NNE 12.7 mph - N/A   Scattered Clouds
3:53 AM 39.0 °F 30.6 °F 30.9 °F 73% 30.16 in 10.0 mi North 15.0 mph - N/A   Clear
4:53 AM 37.0 °F 31.0 °F 30.0 °F 76% 30.18 in 10.0 mi North 8.1 mph - N/A   Clear
5:53 AM 34.0 °F 26.0 °F 28.0 °F 79% 30.21 in 10.0 mi North 10.4 mph - N/A   Clear
6:53 AM 34.0 °F 28.0 °F 27.0 °F 75% 30.21 in 10.0 mi NNE 6.9 mph - N/A   Clear
7:53 AM 37.0 °F 30.4 °F 26.1 °F 65% 30.22 in 10.0 mi NE 9.2 mph - N/A   Clear
8:53 AM 39.9 °F 32.9 °F 27.0 °F 60% 30.24 in 10.0 mi NE 11.5 mph 17.3 mph N/A   Partly Cloudy
9:53 AM 44.1 °F 38.6 °F 26.1 °F 49% 30.24 in 10.0 mi NNE 10.4 mph - N/A   Partly Cloudy
10:53 AM 48.0 °F - 25.0 °F 41% 30.24 in 10.0 mi NNE 10.4 mph - N/A   Partly Cloudy
11:53 AM 50.0 °F - 23.0 °F 35% 30.22 in 10.0 mi NNE 11.5 mph - N/A   Partly Cloudy
12:53 PM 52.0 °F - 23.0 °F 32% 30.20 in 10.0 mi NE 12.7 mph 18.4 mph N/A   Partly Cloudy
1:53 PM 54.0 °F - 23.0 °F 30% 30.18 in 10.0 mi NNE 6.9 mph - N/A   Partly Cloudy
2:53 PM 54.0 °F - 21.0 °F 28% 30.17 in 10.0 mi North 8.1 mph - N/A   Mostly Cloudy
3:53 PM 54.0 °F - 21.0 °F 28% 30.16 in 10.0 mi NNE 5.8 mph - N/A   Mostly Cloudy
4:53 PM 51.1 °F - 25.0 °F 36% 30.15 in 10.0 mi North 6.9 mph - N/A   Mostly Cloudy
5:53 PM 48.9 °F - 25.0 °F 39% 30.15 in 10.0 mi North 8.1 mph - N/A   Mostly Cloudy
6:53 PM 46.0 °F 43.1 °F 24.1 °F 42% 30.15 in 10.0 mi North 5.8 mph - N/A   Mostly Cloudy
7:53 PM 44.1 °F 40.8 °F 23.0 °F 43% 30.15 in 10.0 mi North 5.8 mph - N/A   Scattered Clouds
8:53 PM 41.0 °F 38.0 °F 21.9 °F 47% 30.15 in 10.0 mi North 4.6 mph - N/A   Partly Cloudy
9:53 PM 39.9 °F 36.7 °F 21.0 °F 47% 30.12 in 10.0 mi NE 4.6 mph - N/A   Partly Cloudy
10:53 PM 39.9 °F 35.8 °F 21.9 °F 49% 30.11 in 10.0 mi NNE 5.8 mph - N/A   Partly Cloudy
11:53 PM 39.0 °F - 24.1 °F 55% 30.11 in 10.0 mi Calm Calm - N/A   Scattered Clouds